User: anonymous   Login
Location: Kitchener
(43.2612°N, 80.5078°W)
Time: 03:21:41
(UTC+02:00)
Language:

Iridium 57 - Orbit

View from above orbital plane
View from above orbital plane
View from above satellite
View from above satellite

Ground track
Ground track

The orbit data is extracted from the following two-line orbital elements,

1 25273U 98019B   17149.52817493 +.00000050 +00000-0 +10652-4 0  9990
2 25273 086.3947 295.1074 0002198 095.1771 264.9675 14.34269412003396
Epoch (UTC): 29 May 2017 12:40:34
Eccentricity: 0.0002198
inclination: 86.3947°
perigee height: 776 km
apogee height: 779 km
right ascension of ascending node: 295.1074°
argument of perigee: 95.1771°
revolutions per day: 14.34269412
mean anomaly at epoch: 264.9675°
orbit number at epoch: 339

The dashed part of the orbit path shows where the satellite is in the earth's shadow,  

DLR